Year,Month,Day,Hour,Minute,Value (Times are PST for windspeed in km/hr)
2019,06,18,00,00,3.10
2019,06,18,00,01,1.80
2019,06,18,00,02,2.90
2019,06,18,00,03,4.40
2019,06,18,00,04,4.40
2019,06,18,00,05,6.30
2019,06,18,00,06,4.80
2019,06,18,00,07,4.90
2019,06,18,00,08,5.90
2019,06,18,00,09,4.20
2019,06,18,00,10,3.60
2019,06,18,00,11,4.20
2019,06,18,00,12,6.10
2019,06,18,00,13,3.90
2019,06,18,00,14,5.00
2019,06,18,00,15,5.40
2019,06,18,00,16,6.70
2019,06,18,00,17,5.00
2019,06,18,00,18,6.20
2019,06,18,00,19,4.30
2019,06,18,00,20,6.30
2019,06,18,00,21,5.80
2019,06,18,00,22,3.90
2019,06,18,00,23,3.60
2019,06,18,00,24,1.60
2019,06,18,00,25,3.90
2019,06,18,00,26,3.30
2019,06,18,00,27,4.10
2019,06,18,00,28,3.40
2019,06,18,00,29,3.80
2019,06,18,00,30,2.70
2019,06,18,00,31,1.90
2019,06,18,00,32,2.20
2019,06,18,00,33,1.90
2019,06,18,00,34,2.10
2019,06,18,00,35,2.70
2019,06,18,00,36,3.00
2019,06,18,00,37,2.70
2019,06,18,00,38,2.70
2019,06,18,00,39,4.00
2019,06,18,00,40,5.00
2019,06,18,00,41,2.90
2019,06,18,00,42,2.60
2019,06,18,00,43,3.80
2019,06,18,00,44,3.40
2019,06,18,00,45,4.80
2019,06,18,00,46,4.70
2019,06,18,00,47,3.60
2019,06,18,00,48,3.90
2019,06,18,00,49,3.30
2019,06,18,00,50,1.10
2019,06,18,00,51,2.10
2019,06,18,00,52,4.00
2019,06,18,00,53,2.70
2019,06,18,00,54,3.30
2019,06,18,00,55,2.70
2019,06,18,00,56,2.20
2019,06,18,00,57,1.80
2019,06,18,00,58,2.40
2019,06,18,00,59,2.80
2019,06,18,01,00,3.10
2019,06,18,01,01,1.70
2019,06,18,01,02,3.70
2019,06,18,01,03,2.30
2019,06,18,01,04,2.50
2019,06,18,01,05,2.90
2019,06,18,01,06,3.40
2019,06,18,01,07,3.60
2019,06,18,01,08,3.10
2019,06,18,01,09,3.30
2019,06,18,01,10,3.60
2019,06,18,01,11,4.10
2019,06,18,01,12,3.90
2019,06,18,01,13,4.00
2019,06,18,01,14,3.00
2019,06,18,01,15,3.20
2019,06,18,01,16,4.00
2019,06,18,01,17,2.00
2019,06,18,01,18,4.10
2019,06,18,01,19,1.70
2019,06,18,01,20,3.10
2019,06,18,01,21,3.30
2019,06,18,01,22,3.70
2019,06,18,01,23,2.80
2019,06,18,01,24,2.30
2019,06,18,01,25,1.80
2019,06,18,01,26,1.20
2019,06,18,01,27,2.40
2019,06,18,01,28,2.30
2019,06,18,01,29,2.20
2019,06,18,01,30,2.80
2019,06,18,01,31,3.30
2019,06,18,01,32,2.70
2019,06,18,01,33,3.10
2019,06,18,01,34,3.00
2019,06,18,01,35,3.20
2019,06,18,01,36,3.90
2019,06,18,01,37,3.70
2019,06,18,01,38,4.30
2019,06,18,01,39,2.30
2019,06,18,01,40,2.20
2019,06,18,01,41,2.60
2019,06,18,01,42,3.10
2019,06,18,01,43,2.20
2019,06,18,01,44,3.20
2019,06,18,01,45,2.20
2019,06,18,01,46,2.20
2019,06,18,01,47,2.90
2019,06,18,01,48,2.90
2019,06,18,01,49,3.30
2019,06,18,01,50,2.20
2019,06,18,01,51,2.00
2019,06,18,01,52,2.00
2019,06,18,01,53,0.90
2019,06,18,01,54,1.30
2019,06,18,01,55,0.30
2019,06,18,01,56,0.90
2019,06,18,01,57,1.40
2019,06,18,01,58,1.20
2019,06,18,01,59,0.50
2019,06,18,02,00,0.00
2019,06,18,02,01,0.00
2019,06,18,02,02,0.00
2019,06,18,02,03,0.00
2019,06,18,02,04,0.50
2019,06,18,02,05,2.40
2019,06,18,02,06,2.70
2019,06,18,02,07,1.40
2019,06,18,02,08,0.20
2019,06,18,02,09,0.00
2019,06,18,02,10,0.00
2019,06,18,02,11,0.00
2019,06,18,02,12,2.00
2019,06,18,02,13,1.10
2019,06,18,02,14,2.80
2019,06,18,02,15,2.80
2019,06,18,02,16,2.40
2019,06,18,02,17,2.10
2019,06,18,02,18,2.60
2019,06,18,02,19,2.10
2019,06,18,02,20,2.30
2019,06,18,02,21,1.50
2019,06,18,02,22,0.00
2019,06,18,02,23,0.00
2019,06,18,02,24,0.10
2019,06,18,02,25,3.10
2019,06,18,02,26,3.10
2019,06,18,02,27,3.50
2019,06,18,02,28,3.30
2019,06,18,02,29,3.60
2019,06,18,02,30,2.10
2019,06,18,02,31,2.30
2019,06,18,02,32,3.80
2019,06,18,02,33,2.90
2019,06,18,02,34,2.20
2019,06,18,02,35,3.40
2019,06,18,02,36,3.50
2019,06,18,02,37,3.30
2019,06,18,02,38,2.70
2019,06,18,02,39,2.50
2019,06,18,02,40,3.50
2019,06,18,02,41,2.50
2019,06,18,02,42,3.40
2019,06,18,02,43,3.90
2019,06,18,02,44,4.60
2019,06,18,02,45,3.10
2019,06,18,02,46,5.60
2019,06,18,02,47,3.90
2019,06,18,02,48,2.80
2019,06,18,02,49,2.60
2019,06,18,02,50,1.80
2019,06,18,02,51,1.80
2019,06,18,02,52,1.70
2019,06,18,02,53,1.00
2019,06,18,02,54,2.50
2019,06,18,02,55,1.80
2019,06,18,02,56,1.30
2019,06,18,02,57,1.70
2019,06,18,02,58,1.60
2019,06,18,02,59,0.90
2019,06,18,03,00,1.20
2019,06,18,03,01,2.90
2019,06,18,03,02,3.10
2019,06,18,03,03,2.20
2019,06,18,03,04,3.30
2019,06,18,03,05,2.90
2019,06,18,03,06,2.30
2019,06,18,03,07,2.40
2019,06,18,03,08,2.70
2019,06,18,03,09,0.90
2019,06,18,03,10,2.80
2019,06,18,03,11,2.50
2019,06,18,03,12,3.30
2019,06,18,03,13,5.60
2019,06,18,03,14,2.00
2019,06,18,03,15,3.50
2019,06,18,03,16,3.90
2019,06,18,03,17,4.00
2019,06,18,03,18,3.10
2019,06,18,03,19,2.50
2019,06,18,03,20,2.80
2019,06,18,03,21,2.90
2019,06,18,03,22,2.30
2019,06,18,03,23,3.30
2019,06,18,03,24,3.10
2019,06,18,03,25,3.20
2019,06,18,03,26,3.90
2019,06,18,03,27,3.70
2019,06,18,03,28,4.70
2019,06,18,03,29,4.30
2019,06,18,03,30,2.60
2019,06,18,03,31,3.50
2019,06,18,03,32,2.90
2019,06,18,03,33,3.20
2019,06,18,03,34,4.40
2019,06,18,03,35,3.60
2019,06,18,03,36,2.90
2019,06,18,03,37,3.90
2019,06,18,03,38,4.90
2019,06,18,03,39,3.20
2019,06,18,03,40,1.80
2019,06,18,03,41,2.20
2019,06,18,03,42,2.60
2019,06,18,03,43,3.80
2019,06,18,03,44,5.80
2019,06,18,03,45,4.00
2019,06,18,03,46,3.30
2019,06,18,03,47,4.30
2019,06,18,03,48,4.10
2019,06,18,03,49,3.40
2019,06,18,03,50,3.90
2019,06,18,03,51,3.50
2019,06,18,03,52,3.60
2019,06,18,03,53,1.70
2019,06,18,03,54,2.60
2019,06,18,03,55,3.20
2019,06,18,03,56,4.00
2019,06,18,03,57,3.60
2019,06,18,03,58,3.10
2019,06,18,03,59,4.30
2019,06,18,04,00,3.90
2019,06,18,04,01,4.50
2019,06,18,04,02,2.50
2019,06,18,04,03,2.70
2019,06,18,04,04,3.90
2019,06,18,04,05,6.10
2019,06,18,04,06,3.40
2019,06,18,04,07,4.00
2019,06,18,04,08,4.10
2019,06,18,04,09,5.00
2019,06,18,04,10,2.90
2019,06,18,04,11,3.90
2019,06,18,04,12,3.60
2019,06,18,04,13,2.90
2019,06,18,04,14,3.60
2019,06,18,04,15,3.30
2019,06,18,04,16,3.80
2019,06,18,04,17,3.80
2019,06,18,04,18,5.40
2019,06,18,04,19,4.80
2019,06,18,04,20,5.00
2019,06,18,04,21,2.80
2019,06,18,04,22,4.40
2019,06,18,04,23,4.40
2019,06,18,04,24,3.60
2019,06,18,04,25,3.30
2019,06,18,04,26,3.00
2019,06,18,04,27,2.70
2019,06,18,04,28,2.50
2019,06,18,04,29,2.30
2019,06,18,04,30,3.20
2019,06,18,04,31,3.70
2019,06,18,04,32,4.30
2019,06,18,04,33,2.90
2019,06,18,04,34,4.00
2019,06,18,04,35,3.50
2019,06,18,04,36,1.80
2019,06,18,04,37,2.70
2019,06,18,04,38,2.60
2019,06,18,04,39,3.90
2019,06,18,04,40,2.30
2019,06,18,04,41,3.00
2019,06,18,04,42,2.60
2019,06,18,04,43,3.60
2019,06,18,04,44,1.60
2019,06,18,04,45,1.20
2019,06,18,04,46,2.30
2019,06,18,04,47,3.10
2019,06,18,04,48,2.40
2019,06,18,04,49,2.60
2019,06,18,04,50,2.20
2019,06,18,04,51,3.50
2019,06,18,04,52,3.10
2019,06,18,04,53,2.90
2019,06,18,04,54,2.50
2019,06,18,04,55,3.60
2019,06,18,04,56,2.80
2019,06,18,04,57,2.70
2019,06,18,04,58,4.40
2019,06,18,04,59,4.10
2019,06,18,05,00,3.90
2019,06,18,05,01,2.40
2019,06,18,05,02,2.70
2019,06,18,05,03,1.70
2019,06,18,05,04,1.40
2019,06,18,05,05,3.30
2019,06,18,05,06,3.30
2019,06,18,05,07,2.50
2019,06,18,05,08,2.70
2019,06,18,05,09,3.40
2019,06,18,05,10,3.20
2019,06,18,05,11,4.10
2019,06,18,05,12,1.90
2019,06,18,05,13,2.40
2019,06,18,05,14,3.30
2019,06,18,05,15,3.00
2019,06,18,05,16,4.00
2019,06,18,05,17,2.70
2019,06,18,05,18,3.00
2019,06,18,05,19,2.30
2019,06,18,05,20,2.40
2019,06,18,05,21,1.90
2019,06,18,05,22,2.60
2019,06,18,05,23,3.10
2019,06,18,05,24,2.80
2019,06,18,05,25,2.10
2019,06,18,05,26,1.50
2019,06,18,05,27,1.70
2019,06,18,05,28,1.60
2019,06,18,05,29,1.00
2019,06,18,05,30,0.90
2019,06,18,05,31,0.50
2019,06,18,05,32,2.20
2019,06,18,05,33,3.60
2019,06,18,05,34,2.80
2019,06,18,05,35,3.90
2019,06,18,05,36,4.10
2019,06,18,05,37,3.90
2019,06,18,05,38,3.10
2019,06,18,05,39,3.80
2019,06,18,05,40,4.00
2019,06,18,05,41,3.10
2019,06,18,05,42,0.70
2019,06,18,05,43,3.40
2019,06,18,05,44,4.10
2019,06,18,05,45,3.60
2019,06,18,05,46,4.50
2019,06,18,05,47,4.30
2019,06,18,05,48,2.80
2019,06,18,05,49,4.80
2019,06,18,05,50,4.50
2019,06,18,05,51,3.90
2019,06,18,05,52,3.60
2019,06,18,05,53,3.80
2019,06,18,05,54,5.00
2019,06,18,05,55,4.30
2019,06,18,05,56,4.40
2019,06,18,05,57,2.80
2019,06,18,05,58,3.40
2019,06,18,05,59,4.60
2019,06,18,06,00,3.10
2019,06,18,06,01,4.80
2019,06,18,06,02,4.80
2019,06,18,06,03,3.90
2019,06,18,06,04,2.30
2019,06,18,06,05,2.90
2019,06,18,06,06,3.80
2019,06,18,06,07,3.70
2019,06,18,06,08,4.90
2019,06,18,06,09,4.30
2019,06,18,06,10,3.30
2019,06,18,06,11,3.80
2019,06,18,06,12,6.00
2019,06,18,06,13,2.50
2019,06,18,06,14,3.60
2019,06,18,06,15,3.20
2019,06,18,06,16,3.70
2019,06,18,06,17,2.20
2019,06,18,06,18,2.90
2019,06,18,06,19,2.90
2019,06,18,06,20,3.70
2019,06,18,06,21,2.80
2019,06,18,06,22,1.90
2019,06,18,06,23,4.80
2019,06,18,06,24,4.30
2019,06,18,06,25,3.60
2019,06,18,06,26,3.70
2019,06,18,06,27,3.90
2019,06,18,06,28,4.50
2019,06,18,06,29,1.20
2019,06,18,06,30,4.00
2019,06,18,06,31,4.00
2019,06,18,06,32,4.60
2019,06,18,06,33,3.60
2019,06,18,06,34,3.00
2019,06,18,06,35,2.20
2019,06,18,06,36,3.90
2019,06,18,06,37,2.70
2019,06,18,06,38,3.60
2019,06,18,06,39,4.30
2019,06,18,06,40,4.20
2019,06,18,06,41,2.80
2019,06,18,06,42,2.80
2019,06,18,06,43,3.50
2019,06,18,06,44,3.30
2019,06,18,06,45,4.10
2019,06,18,06,46,4.50
2019,06,18,06,47,3.70
2019,06,18,06,48,4.40
2019,06,18,06,49,2.30
2019,06,18,06,50,3.40
2019,06,18,06,51,4.70
2019,06,18,06,52,3.10
2019,06,18,06,53,3.90
2019,06,18,06,54,2.30
2019,06,18,06,55,2.60
2019,06,18,06,56,4.50
2019,06,18,06,57,3.50
2019,06,18,06,58,3.10
2019,06,18,06,59,3.60
2019,06,18,07,00,3.50
2019,06,18,07,01,2.90
2019,06,18,07,02,1.90
2019,06,18,07,03,0.50
2019,06,18,07,04,1.50
2019,06,18,07,05,3.20
2019,06,18,07,06,2.40
2019,06,18,07,07,2.60
2019,06,18,07,08,0.90
2019,06,18,07,09,2.90
2019,06,18,07,10,0.80
2019,06,18,07,11,2.80
2019,06,18,07,12,2.90
2019,06,18,07,13,1.50
2019,06,18,07,14,0.90
2019,06,18,07,15,2.90
2019,06,18,07,16,2.20
2019,06,18,07,17,1.70
2019,06,18,07,18,4.70
2019,06,18,07,19,2.40
2019,06,18,07,20,2.70
2019,06,18,07,21,1.90
2019,06,18,07,22,0.80
2019,06,18,07,23,1.90
2019,06,18,07,24,3.10
2019,06,18,07,25,2.50
2019,06,18,07,26,2.70
2019,06,18,07,27,4.50
2019,06,18,07,28,4.40
2019,06,18,07,29,5.30
2019,06,18,07,30,3.30
2019,06,18,07,31,6.70
2019,06,18,07,32,6.00
2019,06,18,07,33,7.20
2019,06,18,07,34,4.70
2019,06,18,07,35,6.60
2019,06,18,07,36,5.10
2019,06,18,07,37,5.90
2019,06,18,07,38,7.10
2019,06,18,07,39,6.00
2019,06,18,07,40,5.20
2019,06,18,07,41,6.30
2019,06,18,07,42,5.50
2019,06,18,07,43,7.50
2019,06,18,07,44,7.90
2019,06,18,07,45,7.90
2019,06,18,07,46,3.40
2019,06,18,07,47,4.60
2019,06,18,07,48,5.40
2019,06,18,07,49,5.00
2019,06,18,07,50,4.40
2019,06,18,07,51,3.80
2019,06,18,07,52,2.90
2019,06,18,07,53,2.70
2019,06,18,07,54,3.40
2019,06,18,07,55,3.50
2019,06,18,07,56,5.90
2019,06,18,07,57,4.80
2019,06,18,07,58,6.70
2019,06,18,07,59,5.40
2019,06,18,08,00,6.00
2019,06,18,08,01,3.40
2019,06,18,08,02,0.80
2019,06,18,08,03,2.90
2019,06,18,08,04,6.10
2019,06,18,08,05,7.60
2019,06,18,08,06,6.40
2019,06,18,08,07,6.80
2019,06,18,08,08,7.80
2019,06,18,08,09,6.50
2019,06,18,08,10,5.90
2019,06,18,08,11,4.20
2019,06,18,08,12,5.60
2019,06,18,08,13,4.50
2019,06,18,08,14,5.00
2019,06,18,08,15,4.90
2019,06,18,08,16,8.20
2019,06,18,08,17,7.40
2019,06,18,08,18,9.20
2019,06,18,08,19,6.90
2019,06,18,08,20,8.00
2019,06,18,08,21,9.00
2019,06,18,08,22,6.70
2019,06,18,08,23,6.00
2019,06,18,08,24,2.10
2019,06,18,08,25,4.40
2019,06,18,08,26,6.90
2019,06,18,08,27,5.20
2019,06,18,08,28,7.90
2019,06,18,08,29,8.10
2019,06,18,08,30,7.60
2019,06,18,08,31,5.20
2019,06,18,08,32,6.70
2019,06,18,08,33,7.40
2019,06,18,08,34,7.40
2019,06,18,08,35,6.90
2019,06,18,08,36,4.60
2019,06,18,08,37,7.00
2019,06,18,08,38,8.30
2019,06,18,08,39,5.90
2019,06,18,08,40,7.90
2019,06,18,08,41,9.60
2019,06,18,08,42,11.10
2019,06,18,08,43,9.30
2019,06,18,08,44,4.40
2019,06,18,08,45,9.20
2019,06,18,08,46,9.40
2019,06,18,08,47,9.20
2019,06,18,08,48,10.60
2019,06,18,08,49,7.60
2019,06,18,08,50,4.30
2019,06,18,08,51,9.50
2019,06,18,08,52,4.40
2019,06,18,08,53,2.30
2019,06,18,08,54,0.40
2019,06,18,08,55,3.60
2019,06,18,08,56,6.30
2019,06,18,08,57,6.20
2019,06,18,08,58,7.10
2019,06,18,08,59,8.40
2019,06,18,09,00,8.70
2019,06,18,09,01,7.50
2019,06,18,09,02,9.10
2019,06,18,09,03,8.10
2019,06,18,09,04,10.30
2019,06,18,09,05,9.10
2019,06,18,09,06,9.40
2019,06,18,09,07,7.30
2019,06,18,09,08,12.30
2019,06,18,09,09,10.50
2019,06,18,09,10,7.90
2019,06,18,09,11,9.70
2019,06,18,09,12,5.60
2019,06,18,09,13,8.30
2019,06,18,09,14,4.20
2019,06,18,09,15,5.50
2019,06,18,09,16,2.90
2019,06,18,09,17,8.30
2019,06,18,09,18,4.90
2019,06,18,09,19,9.30
2019,06,18,09,20,5.50
2019,06,18,09,21,7.90
2019,06,18,09,22,8.00
2019,06,18,09,23,4.00
2019,06,18,09,24,3.30
2019,06,18,09,25,3.70
2019,06,18,09,26,6.90
2019,06,18,09,27,9.00
2019,06,18,09,28,11.30
2019,06,18,09,29,10.70
2019,06,18,09,30,8.10
2019,06,18,09,31,5.20
2019,06,18,09,32,6.30
2019,06,18,09,33,10.30
2019,06,18,09,34,6.20
2019,06,18,09,35,5.20
2019,06,18,09,36,6.90
2019,06,18,09,37,9.20
2019,06,18,09,38,7.00
2019,06,18,09,39,12.20
2019,06,18,09,40,7.60
2019,06,18,09,41,6.30
2019,06,18,09,42,12.70
2019,06,18,09,43,9.70
2019,06,18,09,44,6.90
2019,06,18,09,45,9.90
2019,06,18,09,46,8.50
2019,06,18,09,47,7.70
2019,06,18,09,48,14.40
2019,06,18,09,49,11.50
2019,06,18,09,50,10.50
2019,06,18,09,51,11.10
2019,06,18,09,52,9.20
2019,06,18,09,53,9.60
2019,06,18,09,54,10.30
2019,06,18,09,55,5.00
2019,06,18,09,56,8.00
2019,06,18,09,57,7.60
2019,06,18,09,58,9.70
2019,06,18,09,59,10.40
2019,06,18,10,00,10.30
2019,06,18,10,01,6.00
2019,06,18,10,02,8.90
2019,06,18,10,03,12.60
2019,06,18,10,04,7.80
2019,06,18,10,05,5.70
2019,06,18,10,06,6.20
2019,06,18,10,07,6.60
2019,06,18,10,08,7.50
2019,06,18,10,09,5.40
2019,06,18,10,10,6.10
2019,06,18,10,11,3.40
2019,06,18,10,12,6.40
2019,06,18,10,13,8.60
2019,06,18,10,14,10.00
2019,06,18,10,15,11.90
2019,06,18,10,16,9.20
2019,06,18,10,17,8.90
2019,06,18,10,18,10.40
2019,06,18,10,19,14.60
2019,06,18,10,20,8.80
2019,06,18,10,21,10.00
2019,06,18,10,22,9.10
2019,06,18,10,23,10.50
2019,06,18,10,24,7.30
2019,06,18,10,25,7.10
2019,06,18,10,26,7.70
2019,06,18,10,27,6.40
2019,06,18,10,28,5.20
2019,06,18,10,29,6.60
2019,06,18,10,30,7.20
2019,06,18,10,31,8.20
2019,06,18,10,32,5.30
2019,06,18,10,33,8.60
2019,06,18,10,34,4.80
2019,06,18,10,35,7.20
2019,06,18,10,36,4.80
2019,06,18,10,37,5.50
2019,06,18,10,38,6.50
2019,06,18,10,39,4.50
2019,06,18,10,40,9.10
2019,06,18,10,41,10.00
2019,06,18,10,42,7.10
2019,06,18,10,43,6.80
2019,06,18,10,44,10.40
2019,06,18,10,45,7.40
2019,06,18,10,46,10.00
2019,06,18,10,47,14.40
2019,06,18,10,48,11.00
2019,06,18,10,49,7.90
2019,06,18,10,50,9.20
2019,06,18,10,51,9.00
2019,06,18,10,52,9.90
2019,06,18,10,53,6.40
2019,06,18,10,54,11.90
2019,06,18,10,55,8.50
2019,06,18,10,56,10.40
2019,06,18,10,57,6.70
2019,06,18,10,58,4.50
2019,06,18,10,59,7.20
2019,06,18,11,00,7.70
2019,06,18,11,01,9.70
2019,06,18,11,02,8.90
2019,06,18,11,03,8.50
2019,06,18,11,04,5.90
2019,06,18,11,05,8.70
2019,06,18,11,06,6.50
2019,06,18,11,07,4.60
2019,06,18,11,08,7.40
2019,06,18,11,09,4.70
2019,06,18,11,10,8.30
2019,06,18,11,11,9.70
2019,06,18,11,12,6.80
2019,06,18,11,13,5.00
2019,06,18,11,14,3.20
2019,06,18,11,15,6.20
2019,06,18,11,16,6.40
2019,06,18,11,17,7.10
2019,06,18,11,18,9.40
2019,06,18,11,19,8.10
2019,06,18,11,20,5.90
2019,06,18,11,21,13.00
2019,06,18,11,22,9.40
2019,06,18,11,23,8.10
2019,06,18,11,24,5.30
2019,06,18,11,25,8.20
2019,06,18,11,26,5.80
2019,06,18,11,27,6.00
2019,06,18,11,28,3.60
2019,06,18,11,29,8.10
2019,06,18,11,30,10.10
2019,06,18,11,31,8.40
2019,06,18,11,32,6.10
2019,06,18,11,33,5.60
2019,06,18,11,34,9.30
2019,06,18,11,35,3.00
2019,06,18,11,36,6.00
2019,06,18,11,37,5.00
2019,06,18,11,38,8.00
2019,06,18,11,39,10.00
2019,06,18,11,40,7.50
2019,06,18,11,41,10.50
2019,06,18,11,42,11.30
2019,06,18,11,43,11.10
2019,06,18,11,44,8.40
2019,06,18,11,45,7.20
2019,06,18,11,46,8.30
2019,06,18,11,47,6.80
2019,06,18,11,48,9.50
2019,06,18,11,49,7.40
2019,06,18,11,50,10.10
2019,06,18,11,51,8.70
2019,06,18,11,52,10.80
2019,06,18,11,53,7.50
2019,06,18,11,54,12.20
2019,06,18,11,55,8.30
2019,06,18,11,56,10.80
2019,06,18,11,57,5.50
2019,06,18,11,58,4.20
2019,06,18,11,59,9.20
2019,06,18,12,00,10.60
2019,06,18,12,01,8.50
2019,06,18,12,02,5.60
2019,06,18,12,03,9.90
2019,06,18,12,04,12.20
2019,06,18,12,05,7.90
2019,06,18,12,06,7.40
2019,06,18,12,07,9.30
2019,06,18,12,08,12.20
2019,06,18,12,09,10.10
2019,06,18,12,10,5.30
2019,06,18,12,11,9.40
2019,06,18,12,12,6.90
2019,06,18,12,13,8.50
2019,06,18,12,14,7.70
2019,06,18,12,15,7.20
2019,06,18,12,16,5.20
2019,06,18,12,17,5.00
2019,06,18,12,18,11.80
2019,06,18,12,19,9.10
2019,06,18,12,20,9.40
2019,06,18,12,21,8.60
2019,06,18,12,22,9.40
2019,06,18,12,23,7.20
2019,06,18,12,24,10.30
2019,06,18,12,25,11.00
2019,06,18,12,26,8.50
2019,06,18,12,27,5.80
2019,06,18,12,28,11.00
2019,06,18,12,29,8.50
2019,06,18,12,30,11.70
2019,06,18,12,31,8.40
2019,06,18,12,32,9.50
2019,06,18,12,33,5.60
2019,06,18,12,34,7.80
2019,06,18,12,35,11.00
2019,06,18,12,36,10.20
2019,06,18,12,37,11.80
2019,06,18,12,38,6.40
2019,06,18,12,39,5.70
2019,06,18,12,40,5.60
2019,06,18,12,41,7.10
2019,06,18,12,42,12.60
2019,06,18,12,43,6.90
2019,06,18,12,44,4.80
2019,06,18,12,45,9.70
2019,06,18,12,46,10.50
2019,06,18,12,47,9.90
2019,06,18,12,48,4.50
2019,06,18,12,49,3.70
2019,06,18,12,50,8.30
2019,06,18,12,51,7.80
2019,06,18,12,52,7.40
2019,06,18,12,53,7.50
2019,06,18,12,54,5.10
2019,06,18,12,55,6.00
2019,06,18,12,56,9.30
2019,06,18,12,57,6.60
2019,06,18,12,58,8.40
2019,06,18,12,59,5.60
2019,06,18,13,00,6.30
2019,06,18,13,01,4.10
2019,06,18,13,02,8.00
2019,06,18,13,03,8.50
2019,06,18,13,04,8.00
2019,06,18,13,05,8.30
2019,06,18,13,06,8.00
2019,06,18,13,07,8.20
2019,06,18,13,08,10.40
2019,06,18,13,09,7.10
2019,06,18,13,10,3.70
2019,06,18,13,11,9.30
2019,06,18,13,12,10.00
2019,06,18,13,13,6.50
2019,06,18,13,14,4.80
2019,06,18,13,15,8.70
2019,06,18,13,16,7.30
2019,06,18,13,17,4.30
2019,06,18,13,18,2.00
2019,06,18,13,19,6.10
2019,06,18,13,20,10.10
2019,06,18,13,21,7.60
2019,06,18,13,22,9.20
2019,06,18,13,23,8.00
2019,06,18,13,24,5.90
2019,06,18,13,25,6.80
2019,06,18,13,26,11.00
2019,06,18,13,27,8.30
2019,06,18,13,28,11.70
2019,06,18,13,29,7.20
2019,06,18,13,30,4.90
2019,06,18,13,31,11.60
2019,06,18,13,32,9.90
2019,06,18,13,33,12.30
2019,06,18,13,34,8.30
2019,06,18,13,35,10.10
2019,06,18,13,36,7.90
2019,06,18,13,37,8.70
2019,06,18,13,38,10.20
2019,06,18,13,39,5.20
2019,06,18,13,40,10.80
2019,06,18,13,41,8.20
2019,06,18,13,42,9.00
2019,06,18,13,43,5.70
2019,06,18,13,44,5.80
2019,06,18,13,45,7.10
2019,06,18,13,46,8.30
2019,06,18,13,47,10.40
2019,06,18,13,48,9.90
2019,06,18,13,49,4.40
2019,06,18,13,50,5.70
2019,06,18,13,51,6.90
2019,06,18,13,52,8.00
2019,06,18,13,53,9.30
2019,06,18,13,54,7.40
2019,06,18,13,55,6.70
2019,06,18,13,56,11.10
2019,06,18,13,57,9.80
2019,06,18,13,58,9.30
2019,06,18,13,59,9.00
2019,06,18,14,00,14.30
2019,06,18,14,01,10.40
2019,06,18,14,02,12.70
2019,06,18,14,03,17.40
2019,06,18,14,04,13.90
2019,06,18,14,05,10.50
2019,06,18,14,06,10.70
2019,06,18,14,07,12.90
2019,06,18,14,08,9.10
2019,06,18,14,09,13.00
2019,06,18,14,10,9.40
2019,06,18,14,11,7.20
2019,06,18,14,12,8.30
2019,06,18,14,13,9.20
2019,06,18,14,14,6.60
2019,06,18,14,15,7.60
2019,06,18,14,16,9.40
2019,06,18,14,17,8.90
2019,06,18,14,18,9.40
2019,06,18,14,19,9.90
2019,06,18,14,20,13.00
2019,06,18,14,21,16.70
2019,06,18,14,22,13.90
2019,06,18,14,23,7.20
2019,06,18,14,24,9.40
2019,06,18,14,25,12.30
2019,06,18,14,26,14.80
2019,06,18,14,27,7.50
2019,06,18,14,28,6.50
2019,06,18,14,29,13.60
2019,06,18,14,30,14.20
2019,06,18,14,31,8.90
2019,06,18,14,32,14.20
2019,06,18,14,33,10.00
2019,06,18,14,34,7.20
2019,06,18,14,35,14.70
2019,06,18,14,36,14.10
2019,06,18,14,37,15.20
2019,06,18,14,38,12.30
2019,06,18,14,39,9.10
2019,06,18,14,40,7.70
2019,06,18,14,41,5.50
2019,06,18,14,42,6.60
2019,06,18,14,43,7.10
2019,06,18,14,44,10.60
2019,06,18,14,45,10.80
2019,06,18,14,46,4.30
2019,06,18,14,47,8.90
2019,06,18,14,48,9.30
2019,06,18,14,49,12.50
2019,06,18,14,50,7.30
2019,06,18,14,51,5.10
2019,06,18,14,52,6.00
2019,06,18,14,53,9.90
2019,06,18,14,54,9.60
2019,06,18,14,55,9.40
2019,06,18,14,56,6.20
2019,06,18,14,57,7.30
2019,06,18,14,58,6.40
2019,06,18,14,59,4.80
2019,06,18,15,00,5.40
2019,06,18,15,01,8.70
2019,06,18,15,02,10.20
2019,06,18,15,03,6.60
2019,06,18,15,04,10.10
2019,06,18,15,05,10.50
2019,06,18,15,06,3.40
2019,06,18,15,07,8.00
2019,06,18,15,08,5.80
2019,06,18,15,09,10.80
2019,06,18,15,10,10.10
2019,06,18,15,11,6.40
2019,06,18,15,12,3.80
2019,06,18,15,13,8.10
2019,06,18,15,14,9.40
2019,06,18,15,15,7.90
2019,06,18,15,16,3.70
2019,06,18,15,17,7.40
2019,06,18,15,18,5.20
2019,06,18,15,19,9.20
2019,06,18,15,20,6.90
2019,06,18,15,21,10.90
2019,06,18,15,22,11.80
2019,06,18,15,23,7.80
2019,06,18,15,24,7.80
2019,06,18,15,25,9.90
2019,06,18,15,26,5.10
2019,06,18,15,27,8.50
2019,06,18,15,28,10.30
2019,06,18,15,29,8.40
2019,06,18,15,30,10.30
2019,06,18,15,31,12.40
2019,06,18,15,32,12.00
2019,06,18,15,33,7.30
2019,06,18,15,34,5.90
2019,06,18,15,35,9.10
2019,06,18,15,36,11.30
2019,06,18,15,37,13.20
2019,06,18,15,38,10.60
2019,06,18,15,39,8.90
2019,06,18,15,40,8.50
2019,06,18,15,41,8.50
2019,06,18,15,42,6.20
2019,06,18,15,43,14.10
2019,06,18,15,44,10.20
2019,06,18,15,45,8.50
2019,06,18,15,46,4.40
2019,06,18,15,47,5.10
2019,06,18,15,48,6.20
2019,06,18,15,49,7.50
2019,06,18,15,50,8.50
2019,06,18,15,51,11.50
2019,06,18,15,52,10.70
2019,06,18,15,53,11.30
2019,06,18,15,54,12.70
2019,06,18,15,55,11.70
2019,06,18,15,56,10.20
2019,06,18,15,57,10.10
2019,06,18,15,58,11.80
2019,06,18,15,59,11.30
2019,06,18,16,00,7.80
2019,06,18,16,01,14.00
2019,06,18,16,02,11.90
2019,06,18,16,03,9.00
2019,06,18,16,04,6.10
2019,06,18,16,05,8.10
2019,06,18,16,06,8.00
2019,06,18,16,07,7.30
2019,06,18,16,08,7.50
2019,06,18,16,09,6.50
2019,06,18,16,10,11.70
2019,06,18,16,11,12.70
2019,06,18,16,12,12.50
2019,06,18,16,13,9.90
2019,06,18,16,14,11.10
2019,06,18,16,15,11.10
2019,06,18,16,16,11.50
2019,06,18,16,17,9.90
2019,06,18,16,18,11.20
2019,06,18,16,19,10.90
2019,06,18,16,20,7.80
2019,06,18,16,21,8.70
2019,06,18,16,22,11.10
2019,06,18,16,23,13.60
2019,06,18,16,24,12.20
2019,06,18,16,25,9.00
2019,06,18,16,26,10.10
2019,06,18,16,27,11.00
2019,06,18,16,28,12.80
2019,06,18,16,29,10.40
2019,06,18,16,30,9.90
2019,06,18,16,31,11.40
2019,06,18,16,32,11.60
2019,06,18,16,33,9.20
2019,06,18,16,34,9.30
2019,06,18,16,35,10.50
2019,06,18,16,36,12.50
2019,06,18,16,37,7.00
2019,06,18,16,38,10.50
2019,06,18,16,39,9.90
2019,06,18,16,40,10.20
2019,06,18,16,41,9.10
2019,06,18,16,42,7.80
2019,06,18,16,43,5.50
2019,06,18,16,44,8.40
2019,06,18,16,45,7.20
2019,06,18,16,46,7.50
2019,06,18,16,47,10.80
2019,06,18,16,48,11.40
2019,06,18,16,49,10.80
2019,06,18,16,50,5.60
2019,06,18,16,51,4.20
2019,06,18,16,52,6.90
2019,06,18,16,53,5.70
2019,06,18,16,54,6.20
2019,06,18,16,55,8.00
2019,06,18,16,56,12.50
2019,06,18,16,57,10.20
2019,06,18,16,58,5.70
2019,06,18,16,59,4.50
2019,06,18,17,00,4.60
2019,06,18,17,01,5.40
2019,06,18,17,02,9.30
2019,06,18,17,03,8.20
2019,06,18,17,04,7.20
2019,06,18,17,05,5.70
2019,06,18,17,06,9.70
2019,06,18,17,07,8.50
2019,06,18,17,08,8.40
2019,06,18,17,09,5.00
2019,06,18,17,10,5.40
2019,06,18,17,11,7.80
2019,06,18,17,12,11.60
2019,06,18,17,13,9.20
2019,06,18,17,14,9.10
2019,06,18,17,15,14.30
2019,06,18,17,16,14.10
2019,06,18,17,17,11.20
2019,06,18,17,18,14.30
2019,06,18,17,19,15.30
2019,06,18,17,20,11.20
2019,06,18,17,21,12.70
2019,06,18,17,22,14.30
2019,06,18,17,23,13.90
2019,06,18,17,24,10.20
2019,06,18,17,25,12.40
2019,06,18,17,26,10.60
2019,06,18,17,27,10.50
2019,06,18,17,28,12.20
2019,06,18,17,29,12.30
2019,06,18,17,30,11.30
2019,06,18,17,31,9.70
2019,06,18,17,32,9.00
2019,06,18,17,33,9.20
2019,06,18,17,34,9.70
2019,06,18,17,35,9.30
2019,06,18,17,36,6.30
2019,06,18,17,37,5.40
2019,06,18,17,38,8.60
2019,06,18,17,39,8.00
2019,06,18,17,40,8.70
2019,06,18,17,41,6.60
2019,06,18,17,42,5.70
2019,06,18,17,43,5.60
2019,06,18,17,44,9.00
2019,06,18,17,45,9.50
2019,06,18,17,46,13.60
2019,06,18,17,47,13.10
2019,06,18,17,48,10.40
2019,06,18,17,49,12.50
2019,06,18,17,50,13.70
2019,06,18,17,51,4.20
2019,06,18,17,52,10.70
2019,06,18,17,53,9.20
2019,06,18,17,54,10.50
2019,06,18,17,55,15.90
2019,06,18,17,56,14.10
2019,06,18,17,57,10.00
2019,06,18,17,58,9.70